#timestamp,LO_Frequency,Hit,StdDev 
1538316045.9,900006.3,E
1538316085.8,900006.3,E
1538316125.7,900006.3,E
1538316165.7,900006.3,E
1538316205.7,900006.3,E
1538316245.6,900006.3,E
1538316285.5,900006.3,E
1538316325.5,900006.3,E
1538316486.1,900006.1,E
1538316525.2,900006.1,E
1538316565.1,900006.1,E
1538316605.1,900006.1,E
1538316645.9,900006.1,E
1538316685.9,900006.1,E
1538316725.8,900006.1,E
1538316765.8,900006.1,E
1538316805.7,900006.1,E
1538316845.7,900006.1,E
1538316885.6,900006.1,E
1538316925.6,900006.1,E
1538316965.5,900006.1,E
1538317005.5,900006.1,E
1538317045.4,900006.1,E
1538317085.4,900006.1,E
1538318305.6,9999975.4,E
1538318345.6,286047034.6,E
1538318355.5,286047027.0,N
1538318505.6,25744486.5,E
1538318545.6,25744486.5,E
1538318585.5,25744486.5,E
1538318625.5,25744486.5,E
1538318665.4,25744486.5,E
1538318705.4,900006.1,E
1538318745.3,9999975.8,E
1538318785.3,286047017.1,E
1538318795.2,286047013.6,N
1538318815.0,286046998.0,P
1538318815.9,286046998.0,N
1538318835.8,286046995.3,N
1538318855.6,286046998.9,N
1538318875.4,286046999.3,N
1538318895.3,286046998.0,N
1538318915.1,286046994.4,N
1538318935.8,286046994.6,N
1538318955.7,286046995.3,N
1538319045.7,25744486.3,E
1538319085.6,25744486.3,E
1538319125.6,25744486.3,E
1538319165.5,25744486.3,E
1538319205.5,25744486.3,E
1538319245.4,25744486.3,E
1538319285.4,25744486.3,E
1538319325.3,25744486.3,E
1538319365.3,25744486.3,E
1538319405.2,25744486.3,E
1538319445.2,25744486.3,E
1538319485.1,25744486.3,E
1538319525.1,25744486.3,E
1538319565.0,25744486.3,E
1538319605.9,25744486.3,E
